Terug naar catalogus

ARIANE 1 DEB

ActiefHEO
NORAD 40781·DEBRIS·🇫🇷 France

Gelanceerd Dec 24, 1979 vanaf Guiana Space Centre

Loading…

Volgende Passages (komende 24 uur)

TLE

VersSource: Space-Track

Epoch: Sep 11, 2026, 09:46 UTC

1 40781U 79104AJ  26254.40744373  .00000699  00000-0  28613-2 0  9998
2 40781  19.1016 327.9224 6498825 210.8553  85.2623  3.16840776 26179

Volg ARIANE 1 DEB in realtime met AllMySat

Download on the App Store